Regional Weather Roundup
Issued by NWS

Current Version | Previous Version | Text Only | Print | Product List | Glossary On
Versions: 1 2 3 4 5 6 7 8 9 10 11 12 13 14 15 16 17 18 19 20 21 22 23 24 25 26 27 28 29 30 31 32 33 34 35 36 37 38 39 40 41 42 43 44 45 46 47 48 49 50
000
ASUS44 KFWD 181515
RWRTX
NORTH TEXAS HOURLY WEATHER ROUNDUP
NATIONAL WEATHER SERVICE FORT WORTH TX
1000 AM CDT THU SEP 18 2014

NOTE: "FAIR" INDICATES FEW OR NO CLOUDS BELOW 12,000 FEET WITH NO
SIGNIFICANT WEATHER AND/OR OBSTRUCTIONS TO VISIBILITY.

TXZ118-119-181600-
DALLAS/FORT WORTH METROPLEX

CITY           SKY/WX    TMP DP  RH WIND       PRES   REMARKS
DFW AIRPORT    PTSUNNY   80  72  76 E5        29.94R
DALLAS LOVE    CLOUDY    80  73  79 SE6       29.94R
FTW MEACHAM    CLOUDY    80  71  74 E7        29.94R
DAL-EXECUTIVE  PTSUNNY   79  72  79 SE3       29.94S
FTW-ALLIANCE   CLOUDY    78  71  79 VRB6      29.94R
FTW-NAS-JRB    CLOUDY    81  70  69 E6        29.98R
FTW-SPINKS     CLOUDY    77  72  83 NE3       29.96R FOG
ARLINGTON      CLOUDY    79  71  76 NE5       29.94S
GRAND PRAIRIE  PTSUNNY   79  70  73 MISG      29.95R
ADDISON        CLOUDY    77  72  83 SE5       29.96R
MESQUITE         N/A     75  73  94 CALM      29.95R
LANCASTER      CLOUDY    76  72  88 NE3       29.96R
$$

TXZ091>094-102>105-117-120-121-131>134-181600-
NORTH CENTRAL TEXAS

CITY           SKY/WX    TMP DP  RH WIND       PRES   REMARKS
SHRMAN/DENISON MOSUNNY   79  70  74 NE5       29.97R
GAINESVILLE    CLOUDY    77  71  82 SE6       29.98R
BOWIE          CLOUDY    76  72  85 SE3       29.96S
BRIDGEPORT     CLOUDY    76  71  86 E5        29.97R
DECATUR        CLOUDY    77  72  85 E8        29.97R
DENTON         CLOUDY    78  71  79 SE8       29.95R
MCKINNEY       PTSUNNY   78  71  79 S6        29.95R
GREENVILLE     PTSUNNY   77  66  69 E3        29.97R
ROCKWALL       CLOUDY    77  73  88 CALM      29.95R
TERRELL        CLOUDY    78  74  87 CALM      29.95R
WAXAHACHIE     CLOUDY    77  72  83 CALM      29.96R
CLEBURNE       CLOUDY    75  75 100 CALM      29.96R
GRANBURY       CLOUDY    76  72  88 SE3       29.96R
$$

TXZ083>090-098>101-113>116-127>130-139>142-154-155-181600-
WESTERN NORTH TEXAS

CITY           SKY/WX    TMP DP  RH WIND       PRES   REMARKS
WICHITA FALLS  CLOUDY    74  71  91 SE8       29.94R
WF-KICKAPOO    CLOUDY    75  71  89 E6        29.96R
VERNON         CLOUDY    76  69  79 N3        29.96R
ABILENE        CLOUDY    76  70  82 S5        29.95R
ABILENE-DYESS  DRIZZLE   77  68  73 SE6       29.94S
BRECKENRIDGE   CLOUDY    76  73  87 SE3       29.93S FOG
GRAHAM         CLOUDY    75  69  82 CALM      29.94R
MINERAL WELLS  CLOUDY    74  71  91 E6        29.93R
STEPHENVILLE   CLOUDY    73  69  87 S6        29.97R
COMANCHE       CLOUDY    73  71  96 SE3       29.95S
BROWNWOOD      CLOUDY    75  70  83 S5        29.95R
COLEMAN        CLOUDY    76  69  79 CALM      29.95S
BRADY          MOSUNNY   75  73  94 S9        29.94F
$$

TXZ143>147-156>162-174-175-181600-
CENTRAL TEXAS

CITY           SKY/WX    TMP DP  RH WIND       PRES   REMARKS
WACO           CLOUDY    78  75  90 SE7       29.91R
WACO-TSTC      PTSUNNY   75  75 100 SE5       29.91R FOG
WACO-MCGREGOR  CLOUDY    75  72  88 SE5       29.92S
HILLSBORO      CLOUDY    78  74  86 E5        29.93R
CORSICANA      CLOUDY    78  73  84 NE3       29.94R
MEXIA          CLOUDY    76  75  96 S5        29.91S
HEARNE         CLOUDY    78  77  95 E3        29.90S
CAMERON        PTSUNNY   79  76  90 E3        29.89S
TEMPLE         CLOUDY    79  72  78 E3        29.91R
KILLEEN        PTSUNNY   79  73  83 CALM      29.92R
KILLEEN-SKYLRK CLOUDY    75  70  83 CALM      29.91S
FORT HOOD      PTSUNNY   81  75  83 CALM      29.92R
GATESVILLE     CLOUDY    75  75 100 S3        29.95R
HAMILTON       CLOUDY    74  74 100 SE12      29.95R
LAMPASAS       PTSUNNY   75  73  95 CALM      29.93R
$$

TXZ095>097-106>112-122>126-135>138-148>153-164>167-181600-
EAST TEXAS

CITY           SKY/WX    TMP DP  RH WIND       PRES   REMARKS
PARIS          PTSUNNY   73  63  68 CALM      29.97R
SULPHUR SPRNGS CLOUDY    76  68  76 E3        29.98R
MOUNT PLEASANT CLOUDY    74  71  89 NE3       29.96F
GILMER         CLOUDY    75  75 100 CALM      29.97R
MINEOLA        PTSUNNY   77  73  88 CALM      29.96R
TYLER          CLOUDY    76  72  87 CALM      29.95R
LONGVIEW       CLOUDY    76  72  87 CALM      29.95R
MARSHALL       CLOUDY    79  74  85 CALM      29.96S
ATHENS         CLOUDY    77  72  83 CALM      29.94R
PALESTINE      CLOUDY    78  74  89 CALM      29.95R
JACKSONVILLE   CLOUDY    77  73  86 S6        29.95F
HENDERSON      LGT RAIN  74  74 100 CALM      29.95R
NACOGDOCHES    CLOUDY    75  73  94 CALM      29.94S
LUFKIN         CLOUDY    79  74  84 NE5       29.94R
$$

SUPPLEMENTAL OBSERVATIONS (CENTRAL)

CITY           SKY/WX    TMP DP  RH WIND       PRES   REMARKS
LAKE TEXOMA      N/A     72  66  83 E5          N/A
CADDO GRASSLND   N/A     72  68  88 NE5         N/A
PAT MAYSE LAKE   N/A     72  68  88 NW3         N/A
GREENVILLE       N/A     79  68  69 E6          N/A
CEDAR HILL       N/A     82  72  69 E1          N/A
LAKE LIMESTONE   N/A     81  77  89 SE2         N/A
MCGREGOR         N/A     77  73  88 SE3         N/A
$$

SUPPLEMENTAL OBSERVATIONS (WEST)

CITY           SKY/WX    TMP DP  RH WIND       PRES   REMARKS
MILLERS CREEK    N/A     73  70  88 NE3         N/A
LBJ GRASSLAND    N/A     81  73  78 E6          N/A
GRANBURY         N/A     75  72  88 SE3         N/A
HAMBY            N/A     75  70  83 S3          N/A
IVIE RESERVOIR   N/A     79  70  73 SE5         N/A
COLORADO BEND    N/A     81  72  74 SW3         N/A
$$

SUPPLEMENTAL OBSERVATIONS (EAST)

CITY           SKY/WX    TMP DP  RH WIND       PRES   REMARKS
CLARKSVILLE      N/A     77  70  78 SW2         N/A
TEXARKANA        N/A     81  72  74 S3          N/A
LINDEN           N/A     77  72  83 N1          N/A
CADDO LAKE       N/A     81  73  78 N2          N/A
GILMER           N/A     77  73  88 N1          N/A
HENDERSON        N/A     75  72  88 N5          N/A
S SABINE NF      N/A     75  73  94 CALM        N/A
$$

SUPPLEMENTAL OBSERVATIONS ARE A COLLECTION OF AUTOMATED INSTRUMENTS
THAT ARE MAINTAINED BY A VARIETY OF FEDERAL AND STATE AGENCIES.
CERTAIN ELEMENTS...SUCH AS HUMIDITY VALUES AND SUSTAINED WIND
SPEEDS...MAY BE APPROXIMATED.



USA.gov is the U.S. government's official web portal to all federal, state and local government web resources and services.